Regional Weather Roundup
Issued by NWS Little Rock, AR

Home | Current Version | Previous Version | Graphics & Text | Print | Product List | Glossary On
Versions: 1 2 3 4 5 6 7 8 9 10 11 12 13 14 15 16 17 18 19 20 21 22 23 24 25 26 27 28 29 30 31 32 33 34 35 36 37 38 39 40 41 42 43 44 45 46 47 48 49 50
000
ASUS44 KLZK 040905
RWRLZK

WEATHER ROUNDUP FOR ARKANSAS
NATIONAL WEATHER SERVICE LITTLE ROCK AR
400 AM CDT TUE AUG 04 2015

NOTE: "FAIR" INDICATES FEW OR NO CLOUDS BELOW 12,000 FEET WITH NO
SIGNIFICANT WEATHER AND/OR OBSTRUCTIONS TO VISIBILITY.

ARZ001-003-010-029-041000-
NORTHWEST ARKANSAS

CITY           SKY/WX    TMP DP  RH WIND       PRES   REMARKS
FAYETTEVILLE   CLEAR     66  66 100 CALM      29.98S FOG
FORT SMITH     PTCLDY    75  70  84 NE3       29.93S
HARRISON       CLEAR     68  66  93 CALM      29.99S
BENTONVILLE    CLEAR     72  64  78 CALM      29.98S
ROGERS         CLEAR     73  71  93 SE5       29.98F
SILOAM SPGS    CLEAR     70  63  78 E5        29.96S
HIGHFILL       CLEAR     69  69 100 CALM      29.97S
$$

ARZ004-005-016-041000-
NORTH CENTRAL ARKANSAS

CITY           SKY/WX    TMP DP  RH WIND       PRES   REMARKS
BATESVILLE     CLEAR     72  70  94 CALM      29.95R
FLIPPIN        CLEAR     70  66  88 CALM      29.94S
MTN HOME       CLEAR     71  69  93 CALM      29.96S
$$

ARZ040-041-041000-
WEST CENTRAL ARKANSAS

CITY           SKY/WX    TMP DP  RH WIND       PRES   REMARKS
MENA           PTCLDY    68  64  88 CALM      29.99R
MOUNT IDA      PTCLDY    70  66  87 CALM      29.95R
$$

ARZ009-017-025-026-028-041000-
NORTHEAST ARKANSAS

CITY           SKY/WX    TMP DP  RH WIND       PRES   REMARKS
JONESBORO      CLEAR     73  71  93 CALM      29.93R
NEWPORT        CLEAR     76  72  87 S3        29.95R
WALNUT RIDGE   CLEAR     75  70  83 S3        29.94R
BLYTHEVILLE    CLEAR     76  74  93 S3        29.93S
$$

ARZ022-023-033-042-044-041000-
CENTRAL ARKANSAS

CITY           SKY/WX    TMP DP  RH WIND       PRES   REMARKS
LITTLE ROCK    CLEAR     76  71  85 SW3       29.95R
N LITTLE ROCK    N/A     79  69  71 SW3       29.95R
JACKSONVILLE   CLEAR     71  68  89 CALM      29.94R
SEARCY         CLEAR     71  70  96 CALM      29.96R
HOT SPRINGS    PTCLDY    75  68  78 CALM      29.96R
RUSSELLVILLE   CLEAR     70  68  93 CALM      29.94R
$$

ARZ036-041000-
EAST ARKANSAS

CITY           SKY/WX    TMP DP  RH WIND       PRES   REMARKS
WEST MEMPHIS   PTCLDY    73  73 100 CALM      29.93R
$$

ARZ050-053-066-070-073-041000-
SOUTHWEST ARKANSAS

CITY           SKY/WX    TMP DP  RH WIND       PRES   REMARKS
ARKADELPHIA    FAIR      72  71  96 CALM      29.95R
CAMDEN         MOCLDY    72  68  88 CALM      29.94R
TEXARKANA      CLEAR     75  68  78 CALM      29.94R
EL DORADO      MOCLDY    73  68  84 CALM      29.95R HAZE
DE QUEEN       MOCLDY    73  69  87 CALM      29.92R
$$

ARZ056-057-069-041000-
SOUTHEAST ARKANSAS

CITY           SKY/WX    TMP DP  RH WIND       PRES   REMARKS
PINE BLUFF     PTCLDY    74  71  91 CALM      29.95R
STUTTGART      PTCLDY    75  70  83 CALM      29.95R
MONTICELLO     CLEAR     72  70  93 CALM      29.95R

$$





USA.gov is the U.S. government's official web portal to all federal, state and local government web resources and services.